DELTON-WX Weather Reports


Display with metric or nautical units.
time (UTC)temp
F
wind
direction
speed
MPH
gust
MPH
rain 1hr
in
rain 24hr
in
rain mn
in
humidity
%
barometer
mb
20260503193108 57 241 20.0 0.0 0.00 0.00 0.00 51 978.5
20260503191547 57 241 19.0 0.0 0.00 0.00 0.00 51 978.5
20260503190119 57 238 20.0 0.0 0.00 0.00 0.00 51 978.5
20260503184547 57 237 20.0 0.0 0.00 0.00 0.00 47 979.3
20260503183556 58 234 20.0 0.0 0.00 0.00 0.00 47 979.3
20260503181546 59 239 21.0 0.0 0.00 0.00 0.00 43 979.5
20260503180121 59 235 22.0 0.0 0.00 0.00 0.00 43 979.5
20260503174545 58 242 21.0 0.0 0.00 0.00 0.00 49 980.0
20260503173106 58 240 22.0 0.0 0.00 0.00 0.00 46 979.3
20260503170115 58 240 20.0 0.0 0.00 0.00 0.00 46 979.4
20260503160123 55 236 18.0 0.0 0.00 0.00 0.00 52 979.0
20260503150119 53 240 17.0 0.0 0.00 0.00 0.00 56 979.8
20260503140124 50 233 17.0 0.0 0.00 0.00 0.00 57 979.8
20260503130119 45 235 13.0 0.0 0.00 0.00 0.00 61 980.2
20260503120125 41 223 11.0 0.0 0.00 0.00 0.00 65 980.4
20260503110119 38 229 9.0 0.0 0.00 0.00 0.00 67 979.4
20260503100120 36 220 8.0 0.0 0.00 0.00 0.00 69 979.4
20260503090115 35 210 7.0 0.0 0.00 0.00 0.00 72 979.5
20260503081546 35 200 8.0 0.0 0.00 0.00 0.00 69 979.9
20260503080111 35 196 8.0 0.0 0.00 0.00 0.00 71 979.5
20260503071545 35 185 7.0 0.0 0.00 0.00 0.00 68 980.1
20260503070114 35 187 7.0 0.0 0.00 0.00 0.00 68 980.1
20260503060127 36 190 6.0 0.0 0.00 0.00 0.00 67 981.0
20260503054546 36 196 6.0 0.0 0.00 0.00 0.00 67 981.5
20260503051545 35 192 5.0 0.0 0.00 0.00 0.00 70 981.7
20260503050115 35 196 5.0 0.0 0.00 0.00 0.00 70 981.7
20260503044545 35 198 5.0 0.0 0.00 0.00 0.00 66 982.0
20260503043105 35 200 5.0 0.0 0.00 0.00 0.00 66 981.5
20260503041546 36 200 5.0 0.0 0.00 0.00 0.00 66 981.5
20260503040117 36 207 5.0 0.0 0.00 0.00 0.00 66 981.5
20260503034545 36 216 4.0 0.0 0.00 0.00 0.00 63 982.5
20260503033106 36 218 5.0 0.0 0.00 0.00 0.00 64 982.8
20260503031545 37 214 5.0 0.0 0.00 0.00 0.00 64 982.8
20260503030116 38 219 5.0 0.0 0.00 0.00 0.00 64 982.8
20260503024545 38 218 5.0 0.0 0.00 0.00 0.00 61 983.2
20260503023105 38 225 4.0 0.0 0.00 0.00 0.00 66 983.3
20260503021545 38 230 5.0 0.0 0.00 0.00 0.00 66 983.2
20260503020115 39 234 5.0 0.0 0.00 0.00 0.00 66 983.2
20260503014545 39 240 5.0 0.0 0.00 0.00 0.00 61 982.7
20260503013103 39 245 5.0 0.0 0.00 0.00 0.00 61 982.7
20260503011545 40 252 4.0 0.0 0.00 0.00 0.00 61 982.7
20260503010113 41 257 5.0 0.0 0.00 0.00 0.00 61 982.7
20260503004545 41 262 4.0 0.0 0.00 0.00 0.00 51 983.4
20260503003059 42 259 3.0 0.0 0.00 0.00 0.00 51 983.6
20260503001545 43 286 3.0 0.0 0.00 0.00 0.00 51 983.6
20260503000116 43 292 4.0 0.0 0.00 0.00 0.00 51 983.6
20260502234546 44 296 6.0 0.0 0.00 0.00 0.00 42 983.4
20260502233058 45 283 6.0 0.0 0.00 0.00 0.00 44 983.5
20260502231546 45 285 7.0 0.0 0.00 0.00 0.00 44 983.5
20260502230113 46 286 8.0 0.0 0.00 0.00 0.00 44 983.5
20260502224546 46 285 9.0 0.0 0.00 0.00 0.00 43 983.9
20260502223104 46 283 10.0 0.0 0.00 0.00 0.00 44 984.6
20260502221547 46 284 11.0 0.0 0.00 0.00 0.00 44 984.6
20260502220113 46 283 10.0 0.0 0.00 0.00 0.00 44 984.6
20260502214546 46 285 11.0 0.0 0.00 0.00 0.00 46 984.7
20260502213104 46 280 10.0 0.0 0.00 0.00 0.00 43 984.3
20260502211546 46 277 10.0 0.0 0.00 0.00 0.00 43 984.3
20260502210115 46 277 10.0 0.0 0.00 0.00 0.00 43 984.3
20260502204546 46 277 11.0 0.0 0.00 0.00 0.00 39 984.7
20260502203104 47 280 10.0 0.0 0.00 0.00 0.00 39 985.2
20260502201546 46 282 10.0 0.0 0.00 0.00 0.00 39 985.2
20260502200112 46 282 10.0 0.0 0.00 0.00 0.00 39 985.2
20260502194546 46 284 11.0 0.0 0.00 0.00 0.00 40 985.3